Regional Weather Roundup
Issued by NWS

Home | Current Version | Previous Version | Text Only | Print | Product List | Glossary Off
Versions: 1 2 3 4 5 6 7 8 9 10 11 12 13 14 15 16 17 18 19 20 21 22 23 24 25 26 27 28 29 30 31 32 33 34 35 36 37 38 39 40 41 42 43 44 45 46 47 48 49 50

000
ASUS43 KDMX 100106
RWRIA

WEATHER ROUNDUP FOR IOWA
NATIONAL WEATHER SERVICE DES MOINES IA
700 PM CST FRI DEC 09 2016

NOTE: "FAIR" INDICATES FEW OR NO CLOUDS BELOW 12,000 FEET WITH NO
SIGNIFICANT WEATHER AND/OR OBSTRUCTIONS TO VISIBILITY.

* - THESE STATIONS ARE NOT NWS STATIONS...THUS NOT UNDER NWS
QUALITY CONTROL.  THEY ALSO DO NOT REPORT WEATHER SUCH
AS PRECIPITATION OR FOG.

IAZ001>003-012>014-020>022-031>034-043>046-100200-
   NORTHWEST IOWA

CITY           SKY/WX    TMP DP  RH WIND       PRES   REMARKS
CARROLL *      CLOUDY    19  12  73 SW3       30.51S
CHEROKEE *     CLOUDY    17  11  77 CALM      30.51S
DENISON *      CLOUDY    19  10  68 CALM      30.49R
LE MARS *      CLOUDY    18   7  62 CALM      30.52S
ORANGE CITY *  CLOUDY    16  10  79 CALM      30.48S
SHELDON *      FLURRIES  14  10  85 CALM      30.48S
SIOUX CITY     CLOUDY    20   8  60 SE5       30.52S WCI  13
SPENCER        CLOUDY    17   8  67 W10       30.50R WCI   5
STORM LAKE *   CLOUDY    16   9  73 CALM      30.48F
$$

IAZ055>058-069>071-079>083-090>094-100200-
   SOUTHWEST IOWA

CITY           SKY/WX    TMP DP  RH WIND       PRES   REMARKS
ATLANTIC *     CLOUDY    21  12  68 S5        30.51S WCI  15
AUDUBON *      CLOUDY    19  12  73 CALM      30.51R
CLARINDA *     CLOUDY    23  14  68 CALM      30.54F
COUNCIL BLFS * CLOUDY    21  12  68 SE7       30.50S WCI  13
CRESTON *      CLOUDY    21  12  68 CALM      30.53R
HARLAN  *      CLOUDY    21  12  68 SE3       30.54S
LAMONI         CLOUDY    22  11  62 CALM      30.53S
RED OAK *      CLOUDY    23  12  63 SE6       30.52S WCI  16
SHENANDOAH *   CLOUDY    23  14  68 E6        30.53S WCI  16
$$

IAZ047>049-059>061-072>074-084-100200-
   CENTRAL IOWA

CITY           SKY/WX    TMP DP  RH WIND       PRES   REMARKS
AMES           CLOUDY    20  15  81 W5        30.53S WCI  13
ANKENY *       CLOUDY    21  10  63 CALM      30.55S
BOONE *        CLOUDY    19  12  73 CALM      30.51S
CHARITON *     CLOUDY    21  12  68 CALM      30.54R
DES MOINES     CLOUDY    23  10  57 SW5       30.54S WCI  17
GRINNELL*      CLOUDY    20  14  76 CALM      30.53S
KNOXVILLE *    CLOUDY    21  10  63 SW5       30.53S WCI  15
MARSHALLTOWN   CLOUDY    19  13  77 CALM      30.52S
NEWTON *       CLOUDY    19  12  73 SW3       30.53S
PELLA *        CLOUDY    22  11  62 W5        30.56S WCI  15
PERRY *          N/A     22  13  70 CALM      30.53S
$$

IAZ004>006-015-016-023>025-035-036-100200-
   NORTH CENTRAL IOWA

CITY           SKY/WX    TMP DP  RH WIND       PRES   REMARKS
ALGONA *       CLOUDY    19  10  68 VRB5      30.49S WCI  13
CLARION *      CLOUDY    19  12  73 W3        30.51R
ESTHERVILLE    CLOUDY    16  10  77 NW7       30.48F WCI   6
FORT DODGE *   CLOUDY    19   9  63 W3        30.52R
MASON CITY     CLOUDY    18  11  74 W7        30.51R WCI   9
FOREST CITY *  CLOUDY    19  12  73 W5        30.49S WCI  13
WEBSTER CITY * CLOUDY    19  14  79 W5        30.50R WCI  13
IOWA FALLS *   MOCLDY    20  15  81 CALM      30.51F
$$

IAZ007>011-017>019-026>030-037>042-050>054-066-100200-
   NORTHEAST IOWA

CITY           SKY/WX    TMP DP  RH WIND       PRES   REMARKS
CEDAR RAPIDS   CLOUDY    16  14  92 CALM      30.53S
CHARLES CITY * CLOUDY    16  12  86 SW3       30.50S
CLINTON *      CLOUDY    20  15  81 W8        30.55S WCI  10
DECORAH *      CLOUDY    14  10  85 CALM      30.48S
DUBUQUE        MOCLDY    14  10  84 W9        30.50S WCI   2
MONTICELLO *   CLOUDY    16  10  79 W3        30.53S
OELWEIN *      CLOUDY    14  12  92 S5        30.51S WCI   6
WATERLOO       CLOUDY    18  12  77 SW5       30.52S WCI  11
$$

IAZ064-065-067-068-078-100200-
   EAST CENTRAL IOWA

CITY           SKY/WX    TMP DP  RH WIND       PRES   REMARKS
DAVENPORT      CLEAR     19  13  77 W6        30.55S WCI  11
IOWA CITY      CLOUDY    20  13  74 NW3       30.57S
MUSCATINE *    CLOUDY    21  14  73 W3        30.57S
QUAD CITIES    CLOUDY    20  12  71 W3        30.56S
$$

IAZ062-063-075>077-085>089-095>099-100200-
   SOUTHEAST IOWA

CITY           SKY/WX    TMP DP  RH WIND       PRES   REMARKS
BURLINGTON     MOCLDY    20  14  77 CALM      30.56R
FAIRFIELD *    CLOUDY    19  10  68 W3        30.56R
FORT MADISON * CLOUDY    19  12  73 CALM      30.57R
KEOKUK *       CLOUDY    23  16  74 CALM      30.57R
OSKALOOSA *    MOCLDY    20  13  73 CALM      30.55S
CENTERVILLE *  CLOUDY    23  10  58 CALM      30.56R
OTTUMWA        CLOUDY    21  11  65 CALM      30.55R
WASHINGTON *   CLOUDY    19  14  79 CALM      30.57R
$$

ABBREVIATIONS USED IN REMARKS
   TC - TEMPERATURES IN CELSIUS
  WCI - WIND CHILL INDEX
   HX - HEAT INDEX
  VSB - VISIBILITY
$$





USA.gov is the U.S. government's official web portal to all federal, state and local government web resources and services.